WGS F9 (USA 275)

Last updated on Thu Nov 21 2024 00:02:43 GMT+0000 (Coordinated Universal Time)

1 42075U 17016A 24323.72046324 -.00000094 00000+0 00000+0 0 9997 2 42075 0.0103 336.9063 0000644 267.3790 61.3070 1.00268551 28153
UTC large
Height (km)
Speed (km/s)
/
Latitude / Longitude
Inclination (degrees)
Orbital Period (minutes)
Azimuth
Elevation
Range (km)
Doppler Factor

Next 0 passes for location: London (51.5072 / 0.1276)

Sorry there are no passes over London.